Location: Pallagorio
(39.3000°N, 16.9000°E)
Time: 19:08:41
(UTC+00:00)

ARGOS - Pass Details

Date: 24 January 2021
Orbit: 821 x 834 km, 98.4° (Epoch: 03 March)

Event Time Altitude Azimuth Distance (km) Brightness Sun altitude
Rises 17:52:55 0° 163° (SSE) 3,338 6.2 -21.1°
Reaches altitude 10° 17:55:15 10° 162° (SSE) 2,410 5.5 -21.5°
Maximum altitude 18:00:35 83° 76° (ENE) 835 3.0 -22.5°
Drops below altitude 10° 18:05:59 10° 349° (N) 2,433 5.6 -23.6°
Sets 18:08:21 0° 348° (NNW) 3,372 6.4 -24.0°
